Location: Duttlenheim
(48.5281°N, 7.5657°E)
Time: 07:42:35
(UTC+00:00)

Daily predictions for brighter satellites

Satellite Brightness Start Highest point End
(mag) Time Altitude Azimuth Time Altitude Azimuth Time Altitude Azimuth
Cosmos 2058 Rocket 3.9 16:42:52 10° SSE 16:46:48 31° E 16:50:47 10° NNE
Cosmos 1328 4.4 16:43:04 10° NNW 16:46:59 62° W 16:50:53 10° S
ERBS 4.2 16:45:02 10° NW 16:47:32 19° N 16:50:03 10° NE
FALCON 9 DEB 3.1 16:44:56 10° SW 16:48:09 63° SSE 16:51:22 10° ENE
NOAA 12 4.1 16:42:58 10° SSE 16:48:15 79° ENE 16:53:36 10° NNW
CZ-4B R/B 3.4 16:44:07 10° SSE 16:49:43 86° WSW 16:55:15 10° NNW
ADEOS Rocket 3.4 16:44:34 10° NNE 16:51:03 86° WNW 16:58:16 10° SSW
Cosmos 1689 Rocket 3.8 16:51:28 10° ENE 16:53:11 14° E 16:54:52 10° SE
USA 281 3.3 16:47:09 10° SSE 16:53:44 89° WSW 17:00:22 10° NNW
FALCON 9 DEB 3.9 16:53:21 10° WNW 16:56:36 40° N 16:59:43 11° ENE
IRS-1C Rocket 4.5 16:51:53 10° SE 16:56:49 42° ENE 17:01:47 10° N
FALCON 9 DEB 2.9 16:54:30 10° WSW 16:57:43 78° SSE 17:00:47 11° ENE
CZ-4C R/B 4.0 16:53:18 10° NW 16:58:26 24° NNE 17:04:19 10° ENE
Cosmos 2227 Rocket 2.3 16:53:04 10° NNW 16:58:41 58° ENE 17:04:15 10° SE
Cosmos 1892 3.6 16:56:06 10° N 16:59:32 29° ENE 17:02:58 10° SE
Cosmos 2263 Rocket 3.8 16:56:26 10° N 17:00:01 17° NE 17:03:25 10° ENE
Cosmos 1110 Rocket 4.2 16:55:44 10° SSW 17:00:59 78° WNW 17:06:14 10° NNE
Cosmos 1939 Rocket 3.3 16:58:16 10° SE 17:01:54 37° ENE 17:05:31 10° N
Cosmos 1302 Rocket 4.2 16:57:52 10° S 17:02:59 55° ESE 17:08:10 10° NNE
H-2A R/B 2.7 17:01:37 10° N 17:05:43 55° WNW 17:09:43 10° SSW
USA 307 3.0 17:01:53 10° WNW 17:06:10 64° NNE 17:10:16 11° ESE
COSMO-SKYMED 1 3.2 17:03:32 10° NNE 17:07:29 33° E 17:11:26 10° SSE
Envisat 4.3 17:04:04 10° S 17:08:55 46° W 17:13:50 10° NNW
SAR-Lupe-4 4.0 17:05:52 10° NNE 17:09:15 38° E 17:12:36 10° S
Cosmos 1300 2.6 17:07:05 10° S 17:10:53 87° E 17:14:44 10° N
USA 308 2.9 17:06:51 10° WNW 17:11:09 67° NNE 17:15:04 12° ESE
Cosmos 1486 Rocket 4.1 17:06:50 10° NNW 17:12:08 60° ENE 17:17:23 10° SE
Cosmos 1400 Rocket 2.9 17:08:33 10° S 17:12:34 55° E 17:16:33 10° NNE
CZ-4B R/B 1.1 17:10:05 10° NNE 17:13:17 74° ESE 17:16:24 10° S
Cosmos 1697 Rocket 3.5 17:09:22 10° SSE 17:14:05 29° ESE 17:18:51 10° NE
Cosmos 1825 3.5 17:12:17 10° NNE 17:15:08 20° ENE 17:17:29 12° ESE
ERS-2 2.1 17:13:25 10° NNE 17:17:05 89° ESE 17:20:44 10° SSW
Helios 1A Rocket 3.3 17:15:22 10° SE 17:19:13 40° ENE 17:23:05 10° N
Meteor 2-8 Rocket 4.4 17:14:49 10° S 17:20:49 63° E 17:26:54 10° NNE
YAOGAN 1 3.3 17:17:47 10° SE 17:21:38 32° ENE 17:25:30 10° N
BREEZE-M TANK 3.5 17:12:33 10° W 17:22:03 64° S 17:25:00 15° ESE
S3M 4.4 17:16:32 10° SSE 17:22:08 39° E 17:27:48 10° NNE
Cosmos 1503 Rocket 4.3 17:17:18 10° NNW 17:22:18 44° ENE 17:27:18 10° SE
Cosmos 1340 2.6 17:22:39 10° NNW 17:26:28 90° E 17:30:15 10° S
NOAA 11 4.3 17:21:07 10° SSE 17:26:34 80° WSW 17:32:02 10° NNW
SAR-Lupe-1 4.0 17:23:34 10° NNE 17:27:07 58° ESE 17:30:37 10° S
CZ-2D R/B 3.3 17:23:32 10° SSE 17:27:13 50° ENE 17:30:56 10° N
Cosmos 44 3.7 17:23:33 10° SW 17:28:03 60° NW 17:32:52 10° NNE
Okean O Rocket 3.1 17:24:28 10° SSW 17:28:34 40° W 17:32:41 10° NNW
Cosmos 2228 4.1 17:25:11 10° SSW 17:29:18 48° WNW 17:33:29 10° N
CZ-4 R/B 1.6 17:26:25 10° SE 17:30:03 41° ENE 17:33:41 10° N
Cosmos 1726 Rocket 4.0 17:25:47 10° SSW 17:30:06 64° WNW 17:34:30 10° N
Cosmos 1346 Rocket 2.8 17:30:21 10° N 17:34:17 54° ENE 17:38:12 10° SSE
SL-4 R/B 1.8 17:31:07 10° WNW 17:34:38 61° NNE 17:36:33 26° E
Cosmos 2058 3.0 17:31:04 10° N 17:35:05 51° ENE 17:39:04 10° SSE
Cosmos 1354 Rocket 4.2 17:30:02 10° NNW 17:35:08 48° ENE 17:40:14 10° SE
Aureole 3 2.6 17:32:44 10° SSW 17:35:47 81° W 17:38:47 10° N
Cosmos 1980 Rocket 3.2 17:33:23 10° SSE 17:37:48 24° ESE 17:39:22 21° ENE
Cosmos 2151 4.2 17:34:37 10° NNE 17:37:30 21° ENE 17:37:30 21° ENE
Cosmos 2297 Rocket 2.7 17:32:35 10° NNW 17:38:12 65° WSW 17:43:47 10° SSE
Cosmos 1992 Rocket 4.2 17:34:35 10° S 17:39:33 47° ESE 17:44:32 10° NNE
PSLV R/B 4.0 17:35:32 10° NNE 17:39:39 56° E 17:43:43 10° S
In-Cosmos 22 Rocket 4.2 17:34:24 10° NNW 17:39:49 84° W 17:45:18 10° S
CZ-2C R/B 3.3 17:38:11 10° SSE 17:43:47 57° ENE 17:49:14 10° N
CSL-04 Debris 4.5 17:39:14 10° SE 17:44:22 45° ENE 17:49:34 10° N
Cosmos 1315 Rocket 3.0 17:42:34 10° SSE 17:46:20 44° E 17:50:11 10° NNE
Cosmos 1553 Rocket 4.0 17:44:02 10° S 17:50:23 85° E 17:56:40 10° N
Cosmos 220 Rocket 4.0 17:47:46 10° S 17:52:05 64° ESE 17:55:51 14° NNE
Ariane Rocket 4.4 17:53:41 21° NE 17:53:41 21° NE 17:56:53 10° N
Meteor 2-15 4.3 17:47:53 10° S 17:54:00 73° E 18:00:08 10° NNE
BREEZE-M R/B 3.5 17:51:03 10° WNW 17:54:55 87° NNE 17:59:00 26° ESE
SKYMED 2 3.6 17:51:20 10° NNE 17:55:43 82° WNW 18:00:03 10° SSW
USA 305 3.0 17:51:40 10° WNW 17:55:59 73° SSW 17:58:11 27° SE
Meteor 2-10 Rocket 3.4 17:50:57 10° S 17:56:12 71° E 18:01:17 10° NNE
Cosmos 1455 2.1 17:54:27 10° S 17:58:11 61° E 18:01:58 10° NNE
Cosmos 2360 4.3 17:55:18 10° S 18:00:48 51° ESE 18:04:36 20° NE
SeaSat 1 3.1 18:00:38 33° ENE 18:01:42 36° NE 18:06:12 10° NNW
NOSS 3-4 (A) 4.0 17:55:01 10° NW 18:01:43 54° NE 18:05:39 28° ESE
NOSS 3-4 (C) 4.0 17:55:08 10° NW 18:01:49 54° NE 18:05:43 28° ESE
USA 306 3.1 17:58:12 10° WNW 18:02:28 66° SSW 18:04:25 30° SE
H-2A R/B 2.2 17:58:55 10° SSE 18:04:14 59° ENE 18:09:37 10° N
Okean-O 2.7 18:01:13 10° S 18:05:38 77° WSW 18:10:06 10° NNW
FALCON 9 DEB 3.6 18:04:31 10° W 18:07:39 45° NNW 18:07:57 44° N
MOS 1 Rocket 3.5 18:03:37 10° NNE 18:08:13 49° E 18:13:04 10° S
FALCON 9 DEB 3.6 18:06:31 10° W 18:09:36 43° NNW 18:09:47 43° N
Cosmos 2278 3.9 18:05:43 10° S 18:11:05 45° ESE 18:12:45 35° ENE
NOSS 3-3 (A) 3.8 18:06:08 10° SSW 18:11:57 74° SE 18:16:10 23° NE
Aureole 3 Rocket 4.5 18:07:52 10° SW 18:12:02 46° WNW 18:17:49 10° N
NOSS 3-3 (C) 3.8 18:06:15 10° SSW 18:12:05 73° SE 18:16:14 24° NE
USA 215 3.7 18:10:10 28° ENE 18:13:12 47° NNE 18:19:24 10° WNW
Cosmos 1745 Rocket 4.2 18:09:10 10° NNW 18:15:28 76° W 18:21:47 10° S
ATLAS 5 CENTAUR R/B 4.0 18:12:48 10° NW 18:15:39 15° N 18:17:34 13° NNE
Cosmos 1408 3.4 18:15:04 10° NNW 18:18:38 52° W 18:22:12 10° S
Cosmos 2082 4.0 18:13:23 10° NNW 18:19:06 67° WSW 18:24:45 10° SSE
Lacrosse 5 2.7 18:14:32 10° NW 18:19:14 36° NNE 18:20:11 33° NE
GEOS 3 Rocket 3.6 18:17:20 40° ESE 18:19:15 68° NE 18:24:38 10° NW
Meteor 2-3 Rocket 4.1 18:14:04 10° N 18:19:28 41° ENE 18:19:36 41° ENE
Cosmos 44 Rocket 3.3 18:14:49 10° SSW 18:19:29 56° ESE 18:19:58 53° E
ARGOS 3.1 18:17:21 29° SE 18:20:05 61° ENE 18:25:28 10° N
ATLAS 2AS CENTAUR R/B 2.9 18:16:20 10° NW 18:23:51 58° NE 18:26:17 40° E
Cosmos 1656 4.4 18:18:54 10° SW 18:24:21 52° NW 18:29:54 10° NNE
FALCON 9 DEB 4.1 18:21:17 10° W 18:24:00 39° NNW 18:24:00 39° NNW
Cosmos 1689 Rocket 4.1 18:21:53 10° N 18:24:24 27° WNW 18:26:55 10° SW
ERBS 4.1 18:21:44 10° NW 18:23:42 23° N 18:23:42 23° N
Cosmos 1844 Rocket 4.4 18:28:39 10° N 18:31:40 18° NNE 18:31:40 18° NNE
Cosmos 1076 Rocket 4.1 18:28:51 10° NNW 18:33:01 54° W 18:37:10 10° S
FALCON 9 DEB 4.0 18:30:24 10° WNW 18:32:59 48° WNW 18:32:59 48° WNW
Cosmos 2369 3.7 18:29:46 10° SSW 18:35:30 85° WNW 18:39:11 23° NNE
SJ 16-02 3.7 18:33:02 10° N 18:33:44 13° N 18:33:44 13° N
Cosmos 1777 Rocket 3.8 18:33:18 10° NNW 18:38:32 68° ENE 18:38:35 67° ENE
CSL-04 Rocket 3.9 18:35:59 10° S 18:41:32 72° WSW 18:47:02 10° NNW
Cosmos 2227 Rocket 4.3 18:37:46 10° NW 18:42:21 26° WSW 18:46:57 10° SSW
Meteor 2-17 Rocket 4.4 18:38:43 10° N 18:44:33 58° ENE 18:44:33 58° ENE
Cosmos 1709 Rocket 4.1 18:38:35 10° NNW 18:44:59 79° W 18:51:21 10° S
Cosmos 2263 Rocket 2.1 18:39:27 10° NNW 18:45:07 63° ENE 18:45:07 63° ENE
USA 307 4.1 18:42:08 10° WNW 18:46:04 35° SW 18:46:28 34° SSW
CZ-4C R/B 3.2 18:41:59 10° NW 18:48:38 49° NE 18:49:38 46° ENE
Cosmos 1825 3.7 18:47:17 10° NNW 18:50:45 35° W 18:52:23 23° SW
USA 308 4.2 18:47:09 10° WNW 18:51:01 33° SW 18:51:15 32° SW
YAOGAN 1 4.4 18:53:57 10° SSW 18:57:44 29° W 19:01:33 10° NW
Cosmos 1697 Rocket 3.4 18:52:18 10° SW 18:57:47 52° NW 19:01:26 21° NNE
Cosmos 2074 Rocket 4.4 18:53:23 10° N 18:58:06 47° NNE 18:58:06 47° NNE
CZ-4 R/B 4.0 19:02:31 10° SW 19:05:16 18° W 19:08:01 10° NW
Cosmos 2315 Rocket 4.2 19:05:00 10° SSW 19:11:09 68° W 19:17:22 10° N
SL-4 R/B 4.2 19:10:40 10° WNW 19:12:08 22° W 19:12:08 22° W
Cosmos 1980 Rocket 2.5 19:15:47 10° SW 19:21:13 61° WNW 19:21:13 61° WNW
Ariane Rocket 4.4 19:33:54 33° NNW 19:33:54 33° NNW 19:36:44 10° NNW
SeaSat 1 3.9 19:40:26 35° WNW 19:40:26 35° WNW 19:43:51 10° NW
H-2A R/B 4.3 19:39:45 10° SW 19:44:01 23° W 19:48:21 10° NW
NOSS 3-4 (A) 4.5 19:46:01 10° NW 19:52:43 48° WSW 19:53:08 47° SW
NOSS 3-4 (C) 4.5 19:46:08 10° NW 19:52:49 48° WSW 19:53:11 48° SW
USA 215 3.8 19:57:31 55° NW 19:57:31 55° NW 20:02:27 10° NW
ATLAS 5 CENTAUR R/B 4.4 19:57:48 10° NNW 19:59:05 16° NNW 19:59:05 16° NNW
Lacrosse 5 4.1 19:57:37 10° NW 19:59:23 22° NW 19:59:23 22° NW
ATLAS 2AS CENTAUR R/B 3.7 20:07:46 10° NW 20:13:44 41° W 20:13:44 41° W
Cosmos 2263 Rocket 4.4 20:24:09 10° NW 20:26:50 21° WNW 20:26:50 21° WNW
CZ-4C R/B 4.0 20:30:27 10° NW 20:34:49 39° WNW 20:34:49 39° WNW
